User: anonymous   Login
Location: Bazinghen
(50.8246°N, 1.6616°E)
Time: 17:43:08
(UTC+00:00)
Language:

SL-24 R/B - RUBIN 2 - Orbit

View from above orbital plane
View from above orbital plane
View from above satellite
View from above satellite

Ground track
Ground track

The orbit data is extracted from the following two-line orbital elements,

1 27610U 02058F   20195.78763256 -.00000100 +00000-0 +83271-5 0  9990
2 27610 064.5550 196.3231 0319284 275.1338 260.4835 14.28176690915696
Epoch (UTC): 13 July 2020 18:54:11
Eccentricity: 0.0319284
inclination: 64.5550°
perigee height: 569 km
apogee height: 1027 km
right ascension of ascending node: 196.3231°
argument of perigee: 275.1338°
revolutions per day: 14.28176690
mean anomaly at epoch: 260.4835°
orbit number at epoch: 91569

The dashed part of the orbit path shows where the satellite is in the earth's shadow,  

DLR